Regional Weather Roundup
Issued by NWS

Home | Current Version | Previous Version | Text Only | Print | Product List | Glossary Off
Versions: 1 2 3 4 5 6 7 8 9 10 11 12 13 14 15 16 17 18 19 20 21 22 23 24 25 26 27 28 29 30 31 32 33 34 35 36 37 38 39 40 41 42 43 44 45 46 47 48 49 50

000
ASUS45 KBOU 111610
RWRCO

WEATHER ROUNDUP FOR COLORADO
NATIONAL WEATHER SERVICE DENVER/BOULDER CO
1000 AM MDT FRI JUL 11 2014

NOTE: "FAIR" INDICATES FEW OR NO CLOUDS BELOW 12000 FEET WITH NO
SIGNIFICANT WEATHER AND/OR OBSTRUCTIONS TO VISIBILITY.

COZ001>005-013-030-031-111700-
...NORTHWEST COLORADO...

CITY           SKY/WX    TMP DP  RH WIND       PRES   REMARKS
CRAIG          MOSUNNY   68  55  63 NE5       30.24R
HAYDEN         PTSUNNY   66  54  63 E8        30.26S
MEEKER         MOSUNNY   70  54  56 CALM      30.24S
MOUNT WERNER   NOT AVBL
STEAMBOAT SPGS PTSUNNY   64  55  73 E3        30.28S
WALDEN         PTSUNNY   64  48  55 SE3       30.36S
$$

COZ006>008-011-111700-
...WEST CENTRAL VALLEYS...

CITY           SKY/WX    TMP DP  RH WIND       PRES   REMARKS
GRAND JUNCTION SUNNY     80  53  39 E5        30.13F
MONTROSE       MOSUNNY   75  56  51 VRB6      30.22F
EAGLE          MOSUNNY   70  59  68 CALM      30.31F
RIFLE          MOSUNNY   71  58  63 W3        30.19F
DELTA          MOSUNNY   81  52  36 SE7       30.17F
NUCLA          MOSUNNY   79  48  34 CALM      30.25F
$$

COZ017>023-064>068-111700-
...SOUTHWEST COLORADO...

CITY           SKY/WX    TMP DP  RH WIND       PRES   REMARKS
DURANGO        CLOUDY    70  53  54 CALM      30.29S
CORTEZ         SUNNY     77  53  43 S5        30.23S
PAGOSA SPRINGS CLOUDY    67  50  55 CALM      30.36F
TELLURIDE      PTSUNNY   64  50  59 CALM      30.44S
WOLF CREEK PAS NOT AVBL
$$

COZ009-010-012-014-032>034-037-058>063-111700-
...CENTRAL COLORADO...

CITY           SKY/WX    TMP DP  RH WIND       PRES   REMARKS
ASPEN          MOSUNNY   67  52  58 N7        30.34S
BUENA VISTA    MOSUNNY   72  44  36 CALM      30.35F
COPPER MTN     CLOUDY    59  43  55 W8        30.67S
BERTHOUD PASS  FAIR      48  34  57 NW12G17   30.71R
COTTONWOOD PAS MOSUNNY   70  45  40 CALM      30.50S
GUNNISON       SUNNY     64  48  55 CALM      30.39F
KREMMLING      MOSUNNY   70  52  52 CALM      30.34F
LEADVILLE      CLOUDY    62  46  55 VRB3      30.49F
MONARCH PASS   SUNNY     54  41  62 W10G18    30.77S
SALIDA         PTSUNNY   71  50  47 CALM      30.39F
SUNLIGHT       SUNNY     61  54  77 CALM      30.58S
WILKERSON PASS CLOUDY    59  39  47 W5        30.64R
$$

COZ069>075-111700-
...SAN LUIS VALLEY/SANGRE DE CRISTO MOUNTAINS...

CITY           SKY/WX    TMP DP  RH WIND       PRES   REMARKS
ALAMOSA        SUNNY     74  48  39 VRB3      30.33S
LA VETA PASS   SUNNY     64  45  48 SW5       30.52S
SAGUACHE       SUNNY     72  48  43 S5        30.36F
$$

COZ035-036-038>040-111700-
...NORTHERN COLORADO FRONT RANGE...

CITY           SKY/WX    TMP DP  RH WIND       PRES   REMARKS
DENVER INTL AP MOSUNNY   80  55  42 NE5       30.15S
DMNS CITY PARK   N/A     82  55  38 E3        30.13F
AURORA         MOSUNNY   78  56  46 VRB2      30.17F
FRONT RANGE AP MOSUNNY   79  57  47 CALM      30.16
ERIE MUNI ARPT MOSUNNY   78  58  50 CALM      30.13S
BOULDER MUN AP MOSUNNY   77  57  50 E5        30.14S
CENTENNIAL     MOSUNNY   80  50  34 VRB3      30.17F
BROOMFIELD     PTSUNNY   77  55  47 E8        30.17S
FORT COLLINS   SUNNY     79  57  47 E7        30.13S
LONGMONT       SUNNY     79  60  52 CALM      30.15R
$$

COZ041-046-047-076>085-087-088-111700-
...PIKES PEAK/PALMER DIVIDE AND SOUTHERN FOOTHILLS...

CITY           SKY/WX    TMP DP  RH WIND       PRES   REMARKS
COLO. SPRINGS  MOSUNNY   85  48  27 N6        30.20S
A. F. ACADEMY  MOSUNNY   80  45  29 VRB2      30.22S
ELLICOTT       NOT AVBL
FALCON         SUNNY     80  47  30 N10G18    30.26S
FORT CARSON    SUNNY     84  49  30 E7        30.17S
LIMON          SUNNY     81  58  45 N14       30.13S
MONUMENT HILL  SUNNY     77  45  31 NE3       30.26F
TRINIDAD       SUNNY     83  50  31 N6        30.17F
$$

COZ042>045-048>051-090-091-111700-
...NORTHEAST COLORADO...

CITY           SKY/WX    TMP DP  RH WIND       PRES   REMARKS
GREELEY ARPT   NOT AVBL
AKRON          SUNNY     75  65  70 NW7       30.10S
BURLINGTON     SUNNY     80  64  58 NW5       30.05S
WRAY           PTSUNNY   79  65  61 CALM      30.04R
STERLING       SUNNY     77  68  73 SW3       30.07S
HOLYOKE        PTSUNNY   79  64  61 CALM      30.04F
FORT MORGAN    SUNNY     78  60  54 W6        30.11S
$$

COZ086-089-092>099-111700-
...SOUTHEAST COLORADO...

CITY           SKY/WX    TMP DP  RH WIND       PRES   REMARKS
PUEBLO         SUNNY     86  50  28 NW5       30.08F
LA JUNTA       SUNNY     83  55  38 VRB5      30.05R
LAMAR          SUNNY     92  50  23 W14G22    29.98F
SPRINGFIELD      N/A     86  51  29 SW17G26   30.07S
$$


USA.gov is the U.S. government's official web portal to all federal, state and local government web resources and services.